Theta_e
309 308 309 308 308 306 306 306 306 307 308 309 310 310 311 311 311 311 311 311 311 320 321 322 324 327 328 329 331 331 330 330 332 332 332 332 335 334 336 335 335 336 336 335 336 336 335 333 334 335 336 334 333 334
308 308 308 308 307 306 306 306 306 307 308 309 309 310 310 310 311 310 311 311 310 310 317 315 316 320 323 326 327 329 329 330 328 332 333 335 336 335 336 335 337 338 335 334 334 334 336 334 334 332 333 334 334 334
307 307 307 307 306 305 305 305 305 306 307 308 309 310 310 310 310 310 310 310 310 314 318 319 321 321 317 317 322 323 325 327 330 333 333 334 337 335 336 337 335 335 334 336 334 333 333 332 331 330 332 334 333 334
307 307 307 305 304 304 304 305 305 306 307 308 308 309 310 310 309 310 310 310 312 313 318 321 316 320 320 322 320 319 321 322 325 327 327 328 330 331 333 332 335 333 335 335 335 334 332 330 329 330 332 333 334 334
307 307 305 304 303 304 304 305 306 308 308 309 309 309 310 310 309 309 310 313 315 314 320 319 318 321 322 322 320 323 321 321 322 324 326 326 325 327 328 329 329 327 330 331 330 329 328 327 329 331 333 333 333 334
306 305 304 304 303 304 304 305 307 308 309 309 310 310 310 310 310 310 318 319 319 321 320 326 324 325 324 324 322 322 324 321 320 323 325 325 326 327 327 329 327 327 327 327 328 327 328 329 329 330 331 332 333 333
306 305 305 304 304 304 304 305 308 309 310 310 309 310 310 310 310 312 316 318 321 321 322 324 324 322 321 325 326 323 322 324 323 322 322 324 326 326 328 329 327 327 328 328 329 330 331 330 332 332 332 334 333 332
306 306 305 305 304 304 304 306 307 309 310 310 310 310 310 309 309 315 314 314 315 317 320 324 324 322 324 327 328 324 324 322 324 324 325 327 328 328 330 327 327 328 329 330 331 332 332 331 331 332 332 333 333 333
306 306 306 305 304 304 304 306 307 308 309 310 310 311 313 314 320 317 318 319 319 317 321 323 324 325 320 323 324 326 325 326 323 326 326 328 330 331 329 329 329 331 331 331 332 333 332 331 331 334 334 332 332 331
306 305 305 305 304 304 304 306 307 308 309 310 310 315 321 318 318 318 319 320 318 320 320 320 320 321 321 321 320 327 329 328 330 329 329 331 330 327 328 330 331 332 332 332 332 331 331 330 330 333 334 333 332 332
306 305 305 305 304 304 305 307 307 308 309 309 311 312 313 313 318 320 321 321 322 323 322 323 324 326 326 326 325 320 329 332 331 331 332 331 333 331 333 333 333 333 332 331 330 331 330 329 329 331 333 335 335 334
305 305 305 304 304 304 306 307 307 307 307 308 308 309 312 317 321 321 323 322 323 324 324 325 325 325 326 324 323 320 324 332 331 330 333 331 331 331 332 331 330 330 330 329 331 334 334 334 330 331 333 335 337 336
305 305 305 304 304 305 306 306 306 306 308 308 309 312 314 318 319 321 322 323 324 323 324 322 324 324 326 324 324 322 327 327 329 331 330 329 332 330 330 330 330 329 329 330 333 334 334 334 334 334 335 336 336 337
304 304 304 304 305 306 306 306 306 307 308 311 313 311 316 319 319 321 321 321 321 321 321 321 322 325 327 328 327 330 327 329 329 329 329 329 332 331 331 330 329 329 330 332 334 334 333 333 333 333 334 336 336 336
304 304 304 306 306 306 305 306 306 306 307 310 311 314 316 316 317 318 319 319 320 319 320 319 322 325 328 329 328 330 329 328 327 328 330 331 332 332 332 331 330 330 331 332 332 332 332 333 334 337 336 336 336 334
304 304 306 306 306 305 307 307 307 307 308 307 308 312 313 315 316 317 318 318 317 319 317 320 322 327 329 329 330 331 329 330 331 330 330 330 332 332 332 332 332 332 332 331 331 331 332 334 333 333 334 334 334 334
304 305 307 307 305 306 307 307 307 307 308 308 311 312 313 313 314 314 315 315 316 316 320 323 326 327 326 324 329 329 329 329 325 325 329 331 333 328 328 331 333 333 333 333 331 330 332 334 334 333 334 333 332 332
306 307 307 307 306 307 308 307 307 308 309 309 310 313 313 313 313 314 315 315 316 317 320 323 321 326 326 325 326 326 325 321 323 326 326 330 331 328 328 330 332 333 333 333 332 332 333 333 333 333 333 333 332 332
307 307 306 305 307 307 307 307 307 309 309 310 311 312 313 313 314 314 314 315 315 316 316 320 325 326 325 325 325 324 324 322 325 326 327 330 328 327 327 327 333 333 332 332 332 331 330 330 332 332 331 332 331 332
307 307 307 307 307 308 308 308 308 308 310 312 311 313 314 314 315 315 316 317 317 317 317 321 324 322 322 321 323 324 321 322 323 326 326 326 326 327 328 330 330 329 330 331 330 330 330 329 330 330 330 330 330 331
307 308 307 307 308 308 308 309 310 310 310 311 312 312 313 314 317 319 319 318 318 318 319 319 322 321 320 320 320 320 322 322 325 325 325 327 327 329 327 329 331 330 331 330 330 331 331 330 330 330 330 330 330 331
308 307 307 308 308 308 308 308 308 309 309 311 311 312 313 316 317 318 319 319 320 320 318 318 319 322 321 323 319 321 323 324 326 326 326 327 327 329 329 330 331 331 331 330 330 330 331 331 330 330 330 331 330 330
308 307 308 308 308 308 307 308 309 310 311 313 314 317 319 321 321 319 320 321 321 323 325 325 325 327 328 327 324 322 325 326 327 327 328 328 329 330 330 330 330 330 330 331 329 331 331 330 330 329 330 330 330 330
307 307 308 308 307 308 308 309 308 309 311 314 318 320 320 321 321 324 324 323 323 323 325 325 327 327 328 329 328 328 329 329 329 329 330 330 330 330 331 330 329 330 331 331 331 331 331 331 331 331 331 331 331 331
307 308 307 308 308 309 309 310 311 312 314 315 318 319 320 321 323 325 323 320 322 323 323 323 324 325 327 327 325 326 330 329 329 328 329 331 331 329 330 331 331 331 330 330 329 329 330 332 332 332 332 332 332 332
308 308 307 310 309 309 310 311 313 315 315 316 318 318 320 322 324 325 322 320 321 322 323 323 324 325 326 326 327 328 328 328 329 328 327 327 327 329 328 328 329 329 328 329 329 329 329 330 331 332 332 332 332 332
308 309 310 310 310 311 311 312 313 314 316 318 318 320 321 322 323 320 320 321 321 322 323 324 324 325 326 326 325 324 324 326 326 326 325 325 326 328 328 328 328 329 327 329 330 330 330 330 331 332 332 331 331 330
308 310 310 311 310 310 311 311 313 314 317 316 317 320 321 320 321 319 320 320 320 321 323 323 324 324 324 324 323 323 324 325 325 325 326 327 328 328 328 328 328 327 328 329 328 330 331 331 331 331 331 330 329 328
309 309 310 310 310 311 312 313 313 314 316 316 317 318 319 318 319 317 319 318 319 319 321 320 321 322 323 323 324 323 322 322 323 324 325 325 326 327 327 328 328 329 329 329 328 327 327 326 327 328 329 327 326 324
309 309 311 311 311 311 312 312 314 315 316 317 317 316 317 318 318 318 319 318 317 317 316 317 318 319 320 321 321 322 322 321 321 322 322 324 326 327 327 328 328 327 327 327 327 323 324 324 324 323 323 322 321 319
310 310 310 310 310 311 312 311 312 313 314 315 316 317 318 318 318 318 318 317 317 319 316 316 318 318 318 318 319 319 320 319 320 320 321 324 326 326 325 325 324 324 324 323 321 320 319 318 318 317 317 317 317 316
310 310 311 312 312 314 315 315 315 316 317 318 318 318 319 320 320 318 317 317 317 316 315 317 319 319 318 318 319 319 318 320 319 322 324 323 324 324 323 322 322 321 321 320 320 319 318 316 315 314 313 312 312 312
311 311 312 312 313 313 315 315 316 318 318 319 319 319 320 319 321 319 317 317 315 315 317 319 319 320 319 320 319 320 319 320 322 323 322 322 322 321 320 319 318 317 317 316 314 313 313 312 312 311 311 310 310 310
Wind_Speed
18 18 19 20 21 21 22 22 23 23 23 22 21 18 16 14 13 11 8 7 4 5 11 8 7 9 7 8 8 4 5 7 7 11 9 9 8 9 11 14 8 10 7 9 10 13 15 8 6 7 10 16 14 13
17 17 18 19 20 21 22 22 22 22 22 21 21 20 18 15 12 11 7 9 8 7 9 12 14 16 16 11 9 9 8 1 5 5 4 5 5 4 9 10 7 10 13 9 5 3 8 3 9 14 11 11 12 12
16 16 17 18 19 20 22 22 23 23 22 21 20 20 19 16 14 12 10 9 10 6 13 8 5 6 15 24 15 14 11 11 6 6 7 5 7 5 10 10 15 11 8 8 12 10 16 14 13 16 16 13 11 10
14 15 16 17 18 20 21 22 22 22 22 22 21 21 19 16 13 13 11 10 6 4 6 2 5 3 4 6 15 25 20 6 7 7 13 8 9 7 10 10 9 9 2 10 14 17 19 22 20 15 12 12 11 10
13 14 15 17 19 20 22 22 22 21 21 20 20 21 19 15 12 12 11 7 3 2 6 11 19 10 7 12 18 14 20 26 15 12 8 9 16 8 11 9 11 15 13 12 13 14 14 18 16 16 12 13 12 11
14 15 17 18 20 22 23 24 23 23 23 21 23 22 16 13 10 7 3 5 5 4 4 4 5 3 5 4 4 12 11 16 19 13 12 14 12 11 6 9 11 11 12 14 17 17 17 17 20 20 20 18 13 12
14 16 18 19 21 23 25 26 24 24 23 23 23 18 12 9 6 1 1 1 3 7 4 6 4 1 4 3 3 6 13 10 13 19 19 18 14 10 11 13 16 18 19 19 16 14 16 17 15 14 14 16 14 13
15 17 19 20 21 23 25 26 25 24 24 24 19 13 7 4 3 3 3 4 4 2 3 4 4 3 7 3 3 5 6 12 10 13 9 13 12 7 9 14 16 17 12 12 13 12 17 19 17 18 19 18 17 16
16 17 19 20 21 23 25 26 26 24 23 22 15 6 3 3 1 3 6 5 4 3 5 3 4 4 9 3 4 4 7 6 7 7 14 8 10 9 8 13 14 9 11 14 12 14 15 18 19 17 17 18 18 19
17 18 19 20 21 24 26 27 26 25 23 18 7 3 1 2 5 6 4 1 1 3 4 5 4 6 10 8 4 4 7 6 5 7 6 6 13 21 21 13 12 10 10 9 11 15 15 18 18 16 15 13 15 15
18 19 20 20 21 23 25 25 26 26 20 13 9 2 5 6 2 2 3 4 3 4 5 4 5 8 6 6 6 4 4 2 4 4 5 5 6 8 7 8 4 5 7 10 12 16 18 21 21 18 16 14 15 16
19 19 20 20 21 22 22 22 23 22 15 15 11 10 4 2 4 4 3 3 4 1 2 4 6 10 6 3 5 4 4 2 5 4 4 5 1 6 6 3 4 7 8 11 13 17 19 18 17 18 17 15 13 14
19 19 20 20 21 20 17 17 22 19 14 7 3 2 2 3 1 5 5 3 2 1 1 8 9 7 4 5 6 4 5 6 1 4 5 4 7 3 1 3 6 8 10 11 14 15 16 18 16 16 17 14 13 13
19 20 20 21 19 15 12 13 18 16 6 2 2 4 5 4 4 2 2 2 3 5 8 11 12 4 5 4 3 5 3 3 4 4 7 2 6 2 3 6 7 9 9 10 11 13 15 16 16 15 15 13 13 14
19 21 20 13 14 11 11 12 12 12 4 2 3 4 4 2 4 5 5 6 5 8 9 12 10 7 5 4 2 5 4 5 2 3 5 7 2 2 5 8 8 9 9 10 11 13 15 16 15 10 8 9 10 7
19 21 12 13 14 12 13 12 10 6 3 2 4 5 5 7 5 4 6 8 8 8 13 6 5 5 5 3 5 5 2 1 4 6 24 13 6 5 5 6 8 9 10 12 13 13 13 13 13 10 7 3 4 4
17 17 16 15 11 10 10 9 4 2 3 3 5 7 9 9 9 8 7 8 7 10 5 5 5 2 1 4 5 4 3 4 15 23 18 15 12 9 9 8 9 11 12 13 14 11 11 11 11 9 7 5 3 3
19 17 15 11 8 10 8 2 2 3 5 6 6 5 6 10 12 13 10 8 7 8 6 3 4 4 3 4 4 4 8 7 15 16 19 16 13 8 10 9 10 12 11 11 11 10 9 9 9 7 6 5 5 6
15 12 7 3 5 5 3 2 2 4 6 8 11 12 12 14 15 15 14 11 10 9 7 5 5 4 3 4 10 10 11 14 15 18 18 12 8 8 9 12 12 12 12 13 10 10 9 9 8 7 6 5 6 6
4 4 3 3 3 2 3 3 3 4 5 6 14 12 12 15 13 12 10 9 10 6 6 4 5 6 5 11 9 10 12 15 18 19 17 10 11 14 13 13 12 14 13 13 11 13 8 8 6 7 7 7 7 8
1 2 2 1 2 4 4 4 3 5 8 6 11 14 9 10 11 10 8 10 11 9 12 12 15 18 17 14 14 13 17 22 19 18 20 15 12 15 15 14 12 12 12 11 13 12 10 8 9 9 8 7 8 8
3 2 3 3 3 3 4 4 5 8 6 9 11 5 7 5 3 3 2 9 6 10 12 15 17 16 19 15 16 19 20 19 19 17 17 16 17 14 15 13 12 12 9 9 9 11 10 9 10 10 9 9 9 9
4 3 2 3 2 2 3 3 4 3 4 4 7 4 4 3 2 3 4 5 4 5 7 9 11 13 15 14 18 23 21 17 13 11 12 12 13 12 12 10 8 8 9 9 10 10 10 12 10 8 9 10 10 12
3 3 2 2 4 3 3 3 4 4 4 4 3 4 3 4 4 3 0 5 11 15 12 13 12 13 10 6 6 7 4 5 6 7 7 7 8 7 8 6 5 5 6 8 9 10 10 10 11 10 10 12 13 15
2 3 3 4 3 4 3 3 3 3 3 3 3 3 3 3 2 0 2 6 16 19 21 17 13 10 10 8 8 8 5 6 8 9 6 6 7 7 5 5 5 5 7 9 9 10 9 10 10 11 12 13 15 15
3 5 5 4 3 4 2 3 2 3 5 3 2 5 4 3 2 3 2 14 18 21 22 20 14 13 11 7 9 11 10 9 8 6 6 6 7 7 8 9 9 7 10 12 12 12 11 10 11 11 13 14 15 14
3 5 6 6 3 3 5 7 8 6 4 2 3 5 3 4 4 4 13 19 22 22 18 15 9 6 6 9 10 11 8 10 8 6 5 6 6 8 10 11 11 11 12 12 11 11 11 10 10 11 10 10 11 12
6 4 6 6 6 7 4 3 4 3 1 2 5 3 3 2 3 11 15 18 18 16 8 13 12 9 9 10 10 11 9 9 8 6 6 7 6 7 11 10 10 13 13 11 11 10 8 7 8 7 8 8 9 11
5 6 6 9 7 5 6 5 6 5 1 2 1 2 4 6 10 13 13 13 15 15 13 11 11 8 8 9 9 10 13 14 15 15 14 13 12 12 13 11 11 11 10 11 15 12 10 9 8 8 6 7 11 12
9 10 6 6 7 5 8 8 8 7 7 7 7 11 12 11 9 8 7 6 12 15 15 12 12 12 11 10 9 9 8 11 12 12 13 14 14 13 12 11 10 11 11 10 10 11 8 11 10 14 14 14 14 15
4 10 7 10 7 11 13 13 15 15 15 16 15 15 13 10 6 3 4 4 8 14 16 14 13 12 12 10 10 10 9 10 12 10 10 9 9 9 10 11 11 11 12 13 14 15 15 17 18 18 18 19 19 19
10 12 9 6 8 7 6 8 10 12 12 12 12 10 8 4 3 4 2 6 10 15 17 15 15 15 11 8 9 7 10 9 9 8 9 8 8 9 10 10 10 11 12 13 13 14 15 16 17 18 19 20 20 20
9 9 9 8 8 6 5 6 5 5 7 8 8 8 7 5 3 4 1 7 13 14 14 13 13 12 11 9 6 6 7 8 8 10 11 10 10 8 7 9 11 13 13 14 15 17 19 19 19 19 19 19 19 19
Wind_Direction
348 350 352 354 356 359 0 1 2 3 3 4 2 0 360 3 1 1 348 351 356 282 274 259 241 235 231 236 253 118 216 207 220 239 250 249 247 236 250 254 243 237 235 243 240 272 269 115 147 247 344 324 323 321
345 346 347 349 351 354 355 356 357 357 357 357 357 356 353 352 354 350 347 329 315 267 263 265 262 246 240 251 262 219 278 293 250 242 227 270 245 249 256 264 184 250 248 282 256 289 116 223 286 301 296 286 299 310
344 346 348 349 350 351 352 353 352 352 350 350 350 349 347 344 341 339 336 328 331 297 294 276 282 265 249 236 228 249 237 248 243 258 289 257 254 269 250 237 263 232 239 251 265 247 261 283 284 290 283 273 290 305
345 347 349 350 351 352 353 353 350 348 345 344 344 341 338 337 334 329 331 323 326 295 285 283 301 313 288 225 226 231 239 247 241 253 254 260 255 219 262 275 270 274 188 256 263 267 276 272 277 283 276 275 274 287
344 347 348 349 350 351 352 352 351 347 341 338 336 332 329 328 327 324 325 331 302 237 312 293 293 282 261 258 243 242 228 227 243 240 237 245 252 269 254 273 262 258 249 260 270 280 288 283 282 280 282 287 274 284
343 345 345 345 346 348 349 349 350 348 341 337 333 329 328 322 323 339 327 25 53 28 332 297 313 293 310 310 228 219 215 219 221 231 244 248 245 234 258 246 268 276 265 266 276 275 274 279 280 276 272 275 271 274
337 340 340 341 343 344 344 345 346 344 340 336 330 329 328 323 322 223 253 249 323 341 306 290 282 267 320 279 218 207 211 211 216 226 239 247 236 217 255 261 266 268 270 277 279 276 271 270 279 284 277 262 253 272
330 332 335 336 339 339 340 342 342 343 341 339 330 329 339 2 48 27 334 307 290 293 264 280 286 258 2 290 234 204 205 209 222 234 233 234 212 236 256 258 268 273 278 272 268 264 269 285 287 282 273 262 258 264
326 327 329 331 334 335 337 338 338 341 341 343 336 343 22 45 21 260 313 308 273 217 295 260 306 345 345 317 285 217 214 218 215 229 230 231 226 220 254 257 260 261 259 280 275 273 278 280 288 291 283 261 256 267
325 325 325 328 331 333 335 336 336 337 340 343 348 357 211 261 311 312 331 97 215 216 237 265 278 277 319 312 280 276 197 248 225 219 175 232 246 257 256 265 258 253 260 266 275 283 288 288 290 290 294 274 258 261
323 322 322 325 328 331 333 334 335 337 343 359 351 307 270 285 300 256 249 240 176 225 203 242 288 313 308 284 309 262 307 281 254 185 227 222 239 225 214 214 213 236 257 272 280 285 291 290 280 282 287 285 274 268
322 320 319 323 325 327 331 336 339 343 338 326 311 304 304 261 224 241 224 185 230 286 161 280 311 296 293 263 262 247 264 222 255 119 247 257 287 128 167 210 266 272 269 285 291 295 296 292 282 275 276 281 284 277
320 317 316 321 320 322 327 336 343 335 326 326 353 322 261 191 232 228 193 191 206 212 291 319 312 302 254 239 260 258 238 246 66 231 251 278 92 154 180 301 297 283 278 286 298 303 305 301 292 274 270 272 280 287
317 313 316 319 317 313 319 339 347 346 336 296 287 290 233 184 234 255 343 328 353 303 320 316 302 280 278 245 293 268 243 263 250 263 268 34 139 186 319 321 317 309 297 299 304 312 317 318 305 280 265 269 275 280
311 310 320 320 325 317 311 326 335 337 295 278 268 246 231 276 248 244 274 284 266 308 312 315 285 243 257 256 148 298 236 233 216 332 30 67 151 312 327 328 322 314 307 305 314 318 322 328 326 315 281 268 270 269
307 312 334 330 321 322 324 319 320 320 272 252 242 263 243 261 253 249 258 269 290 300 304 267 259 257 233 279 218 212 265 331 7 344 336 338 313 292 301 317 315 316 314 312 313 312 320 330 337 340 348 301 256 235
303 308 328 317 312 318 321 324 318 262 255 248 247 246 265 281 278 284 280 272 283 293 272 284 254 317 17 9 310 352 359 340 333 327 310 301 306 303 308 317 311 313 313 313 313 312 316 328 335 343 339 326 287 222
298 309 306 300 316 326 322 333 274 263 258 255 267 278 271 270 281 281 277 274 264 244 259 289 292 272 248 216 223 226 218 320 279 292 305 305 302 301 307 323 324 323 323 322 321 320 321 322 332 327 340 334 304 287
297 303 298 252 301 316 301 283 261 273 263 280 277 281 283 281 276 273 270 260 249 249 274 265 260 251 249 265 304 325 324 304 306 310 311 323 321 297 305 312 315 319 325 327 320 315 310 317 310 310 322 336 324 311
314 323 304 275 269 285 271 264 261 262 279 298 294 283 286 279 280 280 264 240 215 211 216 231 247 281 305 320 323 304 303 283 301 307 313 319 317 316 319 315 308 305 317 322 325 325 315 323 320 323 297 288 309 303
277 312 311 235 267 240 268 289 258 262 294 279 291 307 285 284 273 268 252 209 209 235 235 241 261 280 289 304 298 299 290 299 275 276 282 295 283 296 304 313 307 308 308 313 324 321 315 303 302 314 314 311 301 298
267 323 336 251 257 260 262 246 268 288 280 284 302 273 277 283 258 241 246 206 248 256 258 272 284 289 288 286 315 274 274 277 286 283 287 289 295 302 301 300 300 307 310 315 323 335 331 311 300 296 309 308 308 312
264 293 270 240 259 256 272 275 271 257 265 283 297 262 254 270 301 264 236 229 268 299 293 305 307 301 285 271 254 272 281 275 273 273 278 287 295 298 299 300 299 306 316 321 332 329 327 326 333 320 303 305 303 301
259 253 242 232 217 262 269 247 246 271 274 267 256 283 288 265 296 249 291 331 354 360 351 339 331 330 326 290 290 299 313 294 291 294 301 304 311 328 333 320 312 321 334 336 337 332 331 329 332 326 318 311 307 303
235 230 212 228 228 241 242 248 237 259 283 275 274 268 256 276 262 350 71 300 325 346 348 350 343 340 334 322 327 333 317 322 312 304 303 324 311 324 334 348 350 352 355 342 335 330 330 333 331 325 321 318 317 314
244 212 209 205 191 228 234 271 256 265 284 274 269 282 298 292 286 74 24 330 349 343 344 340 338 340 356 9 360 353 343 337 340 350 354 356 2 1 6 357 352 344 339 337 335 332 329 321 319 325 330 331 335 334
237 220 215 224 227 242 264 254 260 273 272 299 324 298 335 350 2 351 344 346 352 346 349 359 5 26 41 22 17 18 13 29 33 32 37 28 18 1 355 347 344 336 340 340 339 327 320 323 326 336 337 348 4 7
243 249 223 191 218 235 263 291 279 254 242 68 293 300 14 354 357 342 345 350 354 341 353 21 68 65 62 53 46 40 45 28 27 20 32 30 4 356 350 349 341 350 358 340 348 354 352 345 344 347 351 11 18 23
224 218 240 241 230 235 229 232 238 243 209 243 282 286 335 336 326 328 348 10 11 38 61 46 42 41 34 21 23 18 27 26 22 23 21 16 12 8 6 7 6 7 7 7 11 26 37 30 38 38 43 49 40 36
226 212 232 227 220 223 231 223 259 259 286 267 282 289 290 303 313 330 354 339 10 14 12 19 12 359 3 357 358 6 10 15 14 10 0 356 355 354 2 11 19 24 29 34 40 41 59 60 70 60 62 60 54 55
212 196 217 232 249 254 258 260 267 271 268 269 272 271 279 298 293 298 357 2 354 340 355 356 350 348 345 346 346 346 343 348 353 357 0 10 6 25 34 42 44 47 49 53 56 59 61 63 62 62 60 58 55 54
196 211 221 232 256 255 250 255 259 254 262 255 254 251 256 242 237 224 324 0 353 350 356 347 343 339 339 338 345 344 337 349 7 28 34 51 58 47 42 51 55 59 60 62 61 59 61 63 65 64 62 61 59 57
215 217 222 248 262 255 237 238 271 269 243 245 232 225 211 219 194 192 234 359 348 350 344 346 347 346 349 355 355 1 12 31 51 57 56 58 52 68 71 67 67 67 66 69 70 71 72 71 69 67 64 61 58 55